Location: Unspecified
(0.0000°N, 0.0000°E)
Time: 00:24:24
(UTC+00:00)

X-37B - Pass Details

Date: 17 January 2022
Orbit: 334 x 337 km, 45.0° (Epoch: 11 January)

Event Time Altitude Azimuth Distance (km) Brightness Sun altitude
Rises 18:47:39 0° 197° (SSW) 2,098 4.9 -8.8°
Reaches altitude 10° 18:50:10 10° 174° (S) 1,260 3.4 -9.3°
Maximum altitude 18:52:00 16° 133° (SE) 985 2.4 -9.8°
Enters shadow 18:53:20 12° 101° (E) 1,140 2.4 -10.1°
